TICKETS FOR SALE
Click into the Ticket Details to Submit a Bid.

To purchase, you must reside in one of our approved states
Click into the Ticket Details to Submit a Bid.

To purchase, you must reside in one of our
approved states
What do the stars mean?
What do the stars mean?
Seller Sport Bet Type Team Event Odds Price Collects Last Updated
1 NHL Parlay CLB Blue Jackets, STL Blues, SJ Sharks, TOR Maple Leafs, WAS Capitals, DAL Stars, COL Avalanche 7 Leg Parlay (1st Round Series Winner) 1.00/1 $130.00 $260.25 1555839839506
3 NBA Future James Harden To Win 2019 NBA MVP 5.50/1 $200.00 $1,300.00 1555834563766
3 NHL Future STL Blues To Win 2019 Stanley Cup 3.13/1 $1,500.00 $6,200.00 1555834555246
1 NBA Future SA Spurs To Win 2019 NBA Championship 53.00/1 $30.00 $1,620.00 1555829098965
3 Other Future Country House To Win 2019 Kentucky Derby 65.00/1 $74.99 $4,949.00 1555826125318
3 Other Future Haikal To Win 2019 Kentucky Derby 30.00/1 $161.25 $4,998.00 1555825220733
3 Other Future Master Fencer To Win 2019 Kentucky Derby 60.00/1 $81.13 $4,949.00 1555825140940
3 Other Future Tacitus To Win 2019 Kentucky Derby 10.00/1 $154.55 $1,700.00 1555825077150
3 NBA Future James Harden To Win 2019 NBA MVP 3.00/1 $50.00 $200.00 1555821514079
3 MLB Future Christian Yelich To Win 2019 MLB HR Title 3.30/1 $200.80 $862.50 1555819587629
3 MLB Future Christian Yelich To Win 2019 MLB Home Run Title 3.25/1 $235.55 $1,000.00 1555818635707
2 MLB Future Tyler Glasnow Tyler glasnow To Win AL Cy young 3.04/1 $5,000.00 $20,200.00 1555817812252
3 NBA Future IND Pacers To Win 2019 Eastern Conference 251.50/1 $2.00 $505.00 1555811933766
3 NBA Future LA Clippers To Win 2019 NBA Championship 250.25/1 $36.00 $9,045.00 1555809907784
3 NBA Future BK Nets To Win 2019 NBA Championship 142.14/1 $7.00 $1,002.00 1555807208765
1 MLB Future SEA Mariners To Win 2019 World Series 3.01/1 $1,500.00 $6,020.00 1555804771739
3 NHL Future STL Blues To Win 2019 Stanley Cup 3.85/1 $3,100.00 $15,050.00 1555803007549
1 Other Straight Roadster 2019 Kentucky Derby Roadster Win bet 1.60/1 $1,000.00 $2,600.00 1555799850949
3 NHL Future NAS Predators To Win 2019 Stanley Cup 11.00/1 $125.00 $1,500.00 1555799196715
2 NBA Parlay Pistons Ml, Rockets Ml 2team 4/20/19 1.67/1 $20.00 $53.45 1555797868616
2 NBA Parlay Bucks -10, Bucks@pistons Under 216 , Rockets +2 Rockets @jazz Under 215.5 4leg Parlay 2.14/1 $35.00 $110.00 1555797735136
1 NHL Parlay CLB Blue Jackets, STL Blues, LV Golden Knights, BOS Bruins, WAS Capitals, NAS Predators, COL Avalanche 7 Leg Parlay (1st Round Series Winner) 2.17/1 $50.00 $158.45 1555796732708
1 NBA Future LA Clippers To Win 2019 NBA Championship 181.73/1 $55.00 $10,050.00 1555793803939
3 NBA Future DET Pistons To Win 2019 Eastern Conference 669.00/1 $3.00 $2,010.00 1555793619850
3 NBA Future IND Pacers To Win 2019 Eastern Conference 100.00/1 $10.00 $1,010.00 1555792853346
3 NHL Future DAL Stars To Win 2019 Stanley Cup 3.25/1 $599.99 $2,550.00 1555792352724
3 NBA Future OKC Thunder To Win 2019 NBA Championship 44.00/1 $270.00 $12,150.00 1555784094981
4 NHL Future COL Avalanche To Win 2019 Stanley Cup 3.31/1 $699.99 $3,020.00 1555783887355
1 MLB Future Tyler Glasnow 2019 Most Regular Season Pitching Wins 2.85/1 $675.00 $2,600.00 1555774247426
3 MLB Future TB Rays To Win 2019 World Series 13.00/1 $540.25 $7,566.00 1555771760906
1 MLB Future Tyler Glasnow 2019 Most Regular Season Pitching Wins 1.17/1 $1,200.00 $2,600.00 1555746767999
1 MLB Future Zack Greinke 2019 Most Regular Season Pitching Wins 79.40/1 $50.00 $4,020.00 1555746584517
4 NBA Future TOR Raptors To Win 2019 NBA Championship 8.02/1 $66.50 $600.00 1555745918303
1 NBA Future POR Trailblazers To Win 2019 NBA Championship 21.68/1 $555.55 $12,600.00 1555716099101
3 NBA Future DEN Nuggets To Win 2019 NBA Championship 38.35/1 $310.00 $12,200.00 1555711457741
1 NHL Future STL Blues To Win 2019 Western Conference 1.01/1 $930.00 $1,865.00 1555707217547
2 SOCCER Future Eintracht Frankfurt To Win 2019 Europa League 1.60/1 $200.00 $520.00 1555675998064
3 NBA Future Paul George To Win 2019 NBA Defensive Player Of The Year 1.00/1 $2,110.00 $4,229.00 1555606213736
4 MLB Future CHI Cubs To Win 2019 World Series 13.50/1 $200.00 $2,900.00 1555560317155
3 NFL Future CLE Browns To Win 2020 NFL Championship 9.25/1 $400.00 $4,100.00 1555554415381
4 NBA Future James Harden To Win 2019 NBA MVP 3.00/1 $2,000.00 $8,000.00 1555554381152
3 NFL Future CLE Browns To Win 2020 NFL Championship 14.00/1 $1,700.00 $25,500.00 1555554374532
3 NBA Future IND Pacers To Win 2019 NBA Championship 150.82/1 $33.00 $5,010.00 1555548134345
4 NHL Future WAS Capitals To Win 2019 Stanley Cup 5.82/1 $110.00 $750.00 1555530602613
1 MLB Future SEA Mariners To Win 2019 AL West 11.14/1 $125.00 $1,517.00 1555518861227
4 NBA Future James Harden To Win 2019 NBA MVP 3.10/1 $644.00 $2,640.00 1555506035985
3 NBA Future DEN Nuggets To Win 2019 NBA Championship 16.29/1 $295.00 $5,100.00 1555485499412
4 NHL Future WAS Capitals To Win 2019 Stanley Cup 5.82/1 $110.00 $750.00 1555485204162
3 MLB Future Francisco Lindor To Win 2019 AL MVP Award 50.00/1 $788.30 $40,200.00 1555477727207
3 MLB Future Francisco Lindor To Win 2019 MVP AL Award 36.78/1 $135.00 $5,100.00 1555477389613
3 NBA Future Doc Rivers To Win 2019 NBA Coach Of The Year 19.40/1 $50.00 $1,020.00 1555469773204
4 NBA Future LA Clippers To Win 2019 NBA Championship 52.92/1 $400.00 $21,567.20 1555434326828
3 NBA Future HOU Rockets To Win 2019 NBA Championship 3.00/1 $1,500.00 $6,000.00 1555408371253
3 NBA Future HOU Rockets To Win 2019 NBA Championship 3.17/1 $2,300.00 $9,600.00 1555408351193
3 NBA Future HOU Rockets To Win 2019 NBA Championship 3.38/1 $1,200.00 $5,250.00 1555408328674
3 NBA Future HOU Rockets To Win 2019 NBA championship 3.20/1 $1,500.00 $6,300.00 1555408309529
3 NBA Future ORL Magic To Win 2019 NBA Championship 25.03/1 $38.50 $1,002.00 1555406292724
3 MLB Future CLE Indians To Win 2019 World Series 10.00/1 $454.50 $5,000.00 1555355844516
3 MLB Future HOU Astros To Win 2019 World Series 5.00/1 $166.67 $1,000.00 1555355665756
1 NBA Future MIL Bucks To Win 2019 NBA Championship 1.60/1 $5,000.00 $13,000.00 1555355502914
3 NBA Future MIL Bucks To Win 2019 NBA Championship 3.05/1 $3,000.00 $12,160.00 1555285828792
3 NBA Future MIL Bucks To Win 2019 NBA Championship 4.17/1 $600.00 $3,100.00 1555285070300
3 MLB Future Trey Mancini To Win 2019 MLB Home Run Title 25.80/1 $37.50 $1,005.00 1555189844729
2 NBA Future POR Trailblazers To Win 2019 Western Conference 18.10/1 $460.00 $8,787.00 1555188228927
2 NBA Future BK Nets To Win 2019 Eastern Conference 41.64/1 $480.00 $20,468.00 1555188164469
3 NFL Future IND Colts To Win 2019-20 NFL Championship 14.00/1 $253.33 $3,800.00 1555170984723
3 NFL Future Saints To Win 2019-20 NFL Championship 7.50/1 $258.95 $2,200.00 1555170881277
1 CFB Future J.K. Dobbins To Win 2019 Heisman Trophy 12.73/1 $111.11 $1,525.00 1555157518317
1 NFL Future Pittsburgh Steelers To Win 2020 Super Bowl 5.98/1 $111.11 $775.00 1555157377104
1 NBA Future ORL Magic To Win 2019 NBA Championship 14.01/1 $5,000.00 $75,050.00 1555047956695
3 NBA Future TOR Raptors To Win 2019 NBA Championship 8.10/1 $110.00 $1,001.00 1554967002512
1 MLB Future PIT Pirates To Win 2019 World Series 8.57/1 $175.00 $1,675.00 1554941926803
3 MLB Future Giancarlo Stanton To Win 2019 AL MVP Award 35.00/1 $195.44 $7,035.00 1554939889276
4 NFL Future Drew Brees 2019 Most Passing Yards 4.59/1 $850.00 $4,750.00 1554933763611
1 MLB Future CHI White Sox To Win 2019 World Series 7.50/1 $300.00 $2,550.00 1554795737847
2 NBA Future DET Pistons To Win 2019 Eastern Conference 69.49/1 $375.00 $26,433.00 1554754514647
1 MLB Future BAL Orioles To Win 2019 World Series 99.10/1 $1,000.00 $100,100.00 1554681521965
1 NBA Future MIL Bucks To Win 2019 NBA Championship 4.05/1 $10,000.00 $50,500.00 1554523010798
3 NBA Future MIL Bucks To Win 2019 NBA Championship 5.00/1 $1,000.00 $6,004.00 1554387165052
2 NFL Future JAC Jaguars To Win 2020 NFL Championship 24.76/1 $99.00 $2,550.00 1554328885404
1 NFL Prop Carson Wentz 2019 Most Passing Yards 5.20/1 $250.00 $1,550.00 1553276143171
1 NBA Future SA Spurs To Win 2019 Western Conference 4.60/1 $11,250.00 $63,000.00 1553014401233
3 CFB Future Alabama To Win 2020 CFP Championship 2.01/1 $282.00 $850.00 1552960616626
3 NFL Future CLE Browns To Win 2019 NFL Championship 11.00/1 $83.33 $999.95 1552915641987
3 NASCAR Future Daniel Hemric To Win 2019 Monster Energy Cup 149.50/1 $100.00 $15,050.00 1552863538283
3 NFL Future CLE Browns To Win 2020 NFL Championship 3.14/1 $555.00 $2,300.00 1552519489607
3 NFL Future CLE Browns To Win 2020 NFL Championship 14.20/1 $125.00 $1,900.00 1552443251857
3 MLB Future Kris Bryant To Win 2019 NL MVP 9.00/1 $100.00 $1,000.05 1552411192103
3 NBA Future LA Clippers To Win 2019 NBA Championship 19.10/1 $500.00 $10,050.00 1552391944657
3 NBA Future PHI 76ers To Win 2019 NBA Championship 3.13/1 $225.00 $930.00 1549832218057
3 NBA Future Anthony Davis To Win 2019 NBA MVP 64.00/1 $10.00 $650.00 1549765958499
3 NBA Future Stephen Curry To Win 2019 NBA MVP 21.86/1 $70.00 $1,600.00 1548611807960
3 NBA Future Kawhi Leonard To Win 2019 NBA MVP 26.08/1 $24.00 $650.00 1548611774525
1 CFB Future Oregon To Win 2020 CFP Championship 1.48/1 $125.00 $310.00 1548117035195